Mobile, AL

9:45 AM CST on November 23, 2017 (GMT -0600)
Mobile Regional

Weather History for KMOB - October, 2010

Change the Weather History Date:

Friday, October 22, 2010

  Actual Average Record
Temperature  
Mean Temperature 68 °F 66 °F  
Max Temperature 85 °F 78 °F 91 °F (1963)
Min Temperature 50 °F 56 °F 38 °F (1987)
Degree Days  
Heating Degree Days 0 2  
Month to date heating degree days 16 24  
Since 1 July heating degree days 16 26  
Cooling Degree Days 3 4  
Month to date cooling degree days 75 129  
Year to date cooling degree days 2694 2433  
Growing Degree Days 17 (Base 50)    
Moisture  
Dew Point 49 °F    
Average Humidity 58    
Maximum Humidity 96    
Minimum Humidity 20    
Precipitation  
Precipitation 0.00 in 0.11 in 4.07 in (2017)
Month to date precipitation 0.00 2.56  
Year to date precipitation 48.48 54.83  
Sea Level Pressure  
Sea Level Pressure 30.09 in    
Wind  
Wind Speed 4 mph (NE)    
Max Wind Speed 13 mph    
Max Gust Speed 17 mph    
Visibility 9 miles    
Events Fog    
T = Trace of Precipitation, MM = Missing Value Source: NWS Daily Summary

Daily Weather History Graph

Daily Weather History Graph

Search for Another Location

Airport or City:

Trip Planner

Search our weather history database for the weather conditions in past years. The results will help you decide how hot, cold, wet, or windy it might be!

Date:

Astronomy

Oct. 22, 2010 Rise Set
Actual Time 7:00 AM CDT 6:14 PM CDT
Civil Twilight 6:35 AM CDT 6:38 PM CDT
Nautical Twilight 6:07 AM CDT 7:06 PM CDT
Astronomical Twilight 5:39 AM CDT 7:34 PM CDT
Moon 5:48 PM CDT (10/22) 6:36 AM CDT (10/22)
Length of Visible Light 12h 02m
Length of Day
11h 13m
Full, 100% of the Moon is Illuminated
Oct 22
Full
Oct 22
Full
Oct 30
Last Quarter
Nov 5
New
Nov 13
First Quarter

Hourly Weather History & Observations

Time (CDT) Temp. Dew Point Humidity Pressure Visibility Wind Dir Wind Speed Gust Speed Precip Events Conditions
12:56 AM 57.0 °F 54.0 °F 89% 30.04 in 10.0 mi West 3.5 mph - N/A   Clear
1:56 AM 55.9 °F 54.0 °F 93% 30.04 in 9.0 mi NW 3.5 mph - N/A   Clear
2:56 AM 54.0 °F 52.0 °F 93% 30.04 in 8.0 mi Calm Calm - N/A   Clear
3:56 AM 51.1 °F 48.9 °F 92% 30.04 in 8.0 mi Calm Calm - N/A   Clear
4:24 AM 53.6 °F 50.0 °F 88% 30.05 in 5.0 mi WNW 3.5 mph - N/A   Scattered Clouds
4:30 AM 53.6 °F 51.8 °F 94% 30.05 in 3.0 mi Calm Calm - N/A   Mostly Cloudy
4:56 AM 52.0 °F 50.0 °F 93% 30.06 in 7.0 mi NNW 3.5 mph - N/A   Mostly Cloudy
5:03 AM 51.8 °F 50.0 °F 94% 30.07 in 10.0 mi Calm Calm - N/A   Partly Cloudy
5:56 AM 50.0 °F 48.0 °F 93% 30.08 in 3.0 mi Calm Calm - N/A Fog Partly Cloudy
6:56 AM 52.0 °F 50.0 °F 93% 30.10 in 10.0 mi Calm Calm - N/A   Clear
7:56 AM 59.0 °F 53.6 °F 82% 30.11 in 10.0 mi NE 5.8 mph - N/A   Clear
8:56 AM 68.0 °F 51.1 °F 55% 30.13 in 10.0 mi NE 8.1 mph - N/A   Clear
9:56 AM 73.9 °F 46.0 °F 37% 30.15 in 10.0 mi ENE 10.4 mph - N/A   Clear
10:56 AM 78.1 °F 45.0 °F 31% 30.15 in 10.0 mi ENE 8.1 mph - N/A   Clear
11:56 AM 81.0 °F 43.0 °F 26% 30.15 in 10.0 mi East 10.4 mph - N/A   Clear
12:56 PM 82.9 °F 42.1 °F 24% 30.12 in 10.0 mi East 5.8 mph - N/A   Clear
1:56 PM 84.0 °F 41.0 °F 22% 30.09 in 10.0 mi East 9.2 mph - N/A   Partly Cloudy
2:56 PM 84.0 °F 41.0 °F 22% 30.08 in 10.0 mi ESE 8.1 mph - N/A   Clear
3:56 PM 84.0 °F 39.9 °F 21% 30.07 in 10.0 mi Variable 4.6 mph - N/A   Partly Cloudy
4:56 PM 82.9 °F 39.0 °F 21% 30.08 in 10.0 mi NNE 5.8 mph - N/A   Scattered Clouds
5:56 PM 77.0 °F 43.0 °F 30% 30.09 in 10.0 mi SSE 4.6 mph - N/A   Scattered Clouds
6:56 PM 70.0 °F 54.0 °F 57% 30.10 in 10.0 mi South 4.6 mph - N/A   Scattered Clouds
7:56 PM 63.0 °F 54.0 °F 72% 30.11 in 10.0 mi Calm Calm - N/A   Scattered Clouds
8:56 PM 63.0 °F 53.1 °F 70% 30.12 in 10.0 mi Calm Calm - N/A   Partly Cloudy
9:56 PM 60.1 °F 53.1 °F 78% 30.13 in 10.0 mi Calm Calm - N/A   Partly Cloudy
10:56 PM 57.9 °F 53.1 °F 84% 30.14 in 10.0 mi Calm Calm - N/A   Clear
11:56 PM 57.9 °F 54.0 °F 87% 30.14 in 10.0 mi Calm Calm - N/A   Partly Cloudy